Regional Weather Roundup
Issued by NWS Bismarck, ND

Home | Current Version | Previous Version | Text Only | Print | Product List | Glossary On
Versions: 1 2 3 4 5 6 7 8 9 10 11 12 13 14 15 16 17 18 19 20 21 22 23 24 25 26 27 28 29 30 31 32 33 34 35 36 37 38 39 40 41 42 43 44 45 46 47 48 49 50
617
ASUS43 KBIS 270210
RWRBIS

NWR BROADCAST TEXT
NATIONAL WEATHER SERVICE BISMARCK ND
900 PM CDT TUE JUL 26 2016

NOTE: "FAIR" INDICATES FEW OR NO CLOUDS BELOW 12,000 FEET WITH NO
SIGNIFICANT WEATHER AND/OR OBSTRUCTIONS TO VISIBILITY.


CITY           SKY/WX    TMP DP  RH WIND       PRES   REMARKS
WILLISTON      PTCLDY    76  55  48 NE8       30.06S
MINOT          CLOUDY    73  60  63 N7        30.04F
MINOT AFB      CLOUDY    72  57  60 N6        30.03F
BISMARCK       MOCLDY    75  60  59 NE9       30.02R
DICKINSON      CLEAR     68  58  70 E5        30.05S
GARRISON         N/A     70  62  76 N7        30.04S
HETTINGER ARPT CLEAR     74  61  63 NE17      30.07R
JAMESTOWN      LGT RAIN  70  68  93 E3        29.99S
BEACH          FAIR      72  59  64 E7        30.11R
CARRINGTON     RAIN      66  64  94 E7        30.09R
HAZEN          FAIR      68  63  83 E6        30.05S
LINTON         FAIR      66  66 100 NW6       30.00F
MANDAN         FAIR      73  64  73 N12       30.03S
OAKES            N/A    N/A N/A N/A MISG        N/A
STANLEY        FAIR      70  59  68 E7        30.10S
WATFORD CITY     N/A    N/A N/A N/A MISG        N/A
$$

CITY           SKY/WX    TMP DP  RH WIND       PRES   REMARKS
GRAND FORKS    CLOUDY    75  64  68 N9        29.97S
GRAND FORKS AF CLOUDY    72  66  79 N8        29.99R
DEVILS LAKE    CLOUDY    68  65  90 SW3       30.05R
FARGO          LGT RAIN  73  67  81 SW6       29.94S
CAVALIER       MOCLDY    73  63  68 N7        30.02R
GRAFTON        FAIR      72  64  78 N7        30.01S
GWINNER        FAIR      72  66  83 CALM      29.98F
LANGDON        FAIR      70  63  78 NE8       30.05F
ROLLA          FAIR      66  66 100 E3        30.07F
$$

CITY           SKY/WX    TMP DP  RH WIND       PRES   REMARKS
ABERDEEN       CLOUDY    74  67  78 NE6       29.95S
MOBRIDGE       MOCLDY    80  67  64 NE8       29.94R
BUFFALO          N/A     78  58  49 NE16      30.00R
RAPID CITY     CLOUDY    79  55  43 N16       29.98S
GLASGOW        CLOUDY    74  59  59 NE17      30.01F
SIDNEY         CLEAR     77  59  53 NE10      30.04R
WOLF POINT     CLEAR     78  56  46 E14       30.05R
GLENDIVE       CLEAR     77  59  53 E9        30.06R
MILES CITY     CLEAR     84  50  30 E12       30.01R
BAKER          CLEAR     75  57  53 E14       30.08R
$$

CITY           SKY/WX    TMP DP  RH WIND       PRES   REMARKS
BILLINGS       CLOUDY    86  41  20 NW20G29   30.04R THUNDER
GREAT FALLS    CLOUDY    69  54  58 SE12      30.09R
REGINA         MOCLDY    70  52  52 NE9       30.11R
ESTEVAN        MOCLDY    70  59  68 NE7       30.07F
$$





USA.gov is the U.S. government's official web portal to all federal, state and local government web resources and services.